Cleveland, TX

1:53 PM CST on February 26, 2017 (GMT -0600)
Cleveland

Weather History for K6R3 - December, 2012

Change the Weather History Date:

Monday, December 24, 2012

  Actual Average (KCXO) Record (KCXO)
Temperature  
Mean Temperature 60 °F -  
Max Temperature 71 °F 59 °F 80 °F (2016)
Min Temperature 50 °F 36 °F 25 °F (2013)
Degree Days  
Heating Degree Days 4    
Growing Degree Days 10 (Base 50)    
Moisture  
Dew Point 47 °F    
Average Humidity 65    
Maximum Humidity 94    
Minimum Humidity 25    
Precipitation  
Precipitation 0.00 in - - ()
Sea Level Pressure  
Sea Level Pressure 29.89 in    
Wind  
Wind Speed 4 mph (NW)    
Max Wind Speed 7 mph    
Max Gust Speed -    
Visibility 9 miles    
Events Fog    
Averages and records for this station are not official NWS values.
T = Trace of Precipitation, MM = Missing Value Source: NWS Daily Summary

Daily Weather History Graph

Daily Weather History Graph

Search for Another Location

Airport or City:

Trip Planner

Search our weather history database for the weather conditions in past years. The results will help you decide how hot, cold, wet, or windy it might be!

Date:

Astronomy

Dec. 24, 2012 Rise Set
Actual Time 7:14 AM CST 5:25 PM CST
Civil Twilight 6:47 AM CST 5:52 PM CST
Nautical Twilight 6:17 AM CST 6:22 PM CST
Astronomical Twilight 5:48 AM CST 6:51 PM CST
Moon 2:49 PM CST (12/24) 3:58 AM CST (12/24)
Length of Visible Light 11h 04m
Length of Day
10h 11m
Waxing Gibbous, 88% of the Moon is Illuminated
Dec 24
Waxing Gibbous
Dec 28
Full
Jan 4
Last Quarter
Jan 11
New
Jan 18
First Quarter

Hourly Weather History & Observations

Time (CST) Temp. Dew Point Humidity Pressure Visibility Wind Dir Wind Speed Gust Speed Precip Events Conditions
12:15 AM 64.4 °F 62.6 °F 94% 29.91 in 10.0 mi SW 5.8 mph - N/A   Clear
12:35 AM 66.2 °F 62.6 °F 88% 29.91 in 10.0 mi WSW 5.8 mph - N/A   Clear
12:55 AM 66.2 °F 62.6 °F 88% 29.91 in 10.0 mi WSW 4.6 mph - N/A   Clear
1:15 AM 66.2 °F 62.6 °F 88% 29.91 in 10.0 mi WSW 6.9 mph - N/A   Clear
1:35 AM 64.4 °F 60.8 °F 88% 29.91 in 10.0 mi SW 4.6 mph - N/A   Clear
1:55 AM 64.4 °F 60.8 °F 88% 29.91 in 10.0 mi SW 3.5 mph - N/A   Clear
2:15 AM 64.4 °F 60.8 °F 88% 29.90 in 10.0 mi SW 3.5 mph - N/A   Clear
2:35 AM 64.4 °F 60.8 °F 88% 29.90 in 10.0 mi SW 4.6 mph - N/A   Clear
2:55 AM 64.4 °F 60.8 °F 88% 29.90 in 10.0 mi SW 4.6 mph - N/A   Clear
3:15 AM 64.4 °F 60.8 °F 88% 29.90 in 10.0 mi SW 4.6 mph - N/A   Clear
3:35 AM 64.4 °F 60.8 °F 88% 29.91 in 10.0 mi Calm Calm - N/A   Clear
3:55 AM 64.4 °F 60.8 °F 88% 29.90 in 10.0 mi WSW 4.6 mph - N/A   Clear
4:15 AM 62.6 °F 60.8 °F 94% 29.90 in 10.0 mi WSW 4.6 mph - N/A   Clear
4:35 AM 62.6 °F 60.8 °F 94% 29.91 in 10.0 mi West 4.6 mph - N/A   Scattered Clouds
4:55 AM 62.6 °F 60.8 °F 94% 29.91 in 10.0 mi WSW 4.6 mph - N/A   Scattered Clouds
5:15 AM 62.6 °F 59.0 °F 88% 29.91 in 7.0 mi WSW 4.6 mph - N/A   Scattered Clouds
5:35 AM 62.6 °F 59.0 °F 88% 29.92 in 7.0 mi WSW 3.5 mph - N/A   Scattered Clouds
5:55 AM 60.8 °F 59.0 °F 94% 29.92 in 4.0 mi WSW 3.5 mph - N/A   Clear
6:15 AM 60.8 °F 59.0 °F 94% 29.93 in 1.0 mi Calm Calm - N/A   Overcast
6:35 AM 59.0 °F 57.2 °F 94% 29.94 in 0.2 mi Calm Calm - N/A Fog Fog
6:55 AM 60.8 °F 59.0 °F 94% 29.95 in 0.5 mi NW 4.6 mph - N/A Fog Fog
7:15 AM 59.0 °F 55.4 °F 88% 29.95 in 7.0 mi NNW 4.6 mph - N/A   Scattered Clouds
7:35 AM 59.0 °F 55.4 °F 88% 29.96 in 7.0 mi NNW 5.8 mph - N/A   Scattered Clouds
7:55 AM 57.2 °F 53.6 °F 88% 29.97 in 7.0 mi North 3.5 mph - N/A   Clear
8:15 AM 55.4 °F 51.8 °F 88% 29.97 in 10.0 mi North 3.5 mph - N/A   Clear
8:35 AM 55.4 °F 50.0 °F 82% 29.98 in 10.0 mi North 3.5 mph - N/A   Clear
8:55 AM 55.4 °F 50.0 °F 82% 29.98 in 10.0 mi North 4.6 mph - N/A   Clear
9:15 AM 55.4 °F 46.4 °F 72% 29.99 in 10.0 mi North 4.6 mph - N/A   Clear
9:35 AM 57.2 °F 46.4 °F 67% 29.99 in 10.0 mi North 5.8 mph - N/A   Clear
9:55 AM 59.0 °F 42.8 °F 55% 29.99 in 10.0 mi North 6.9 mph - N/A   Clear
10:15 AM 59.0 °F 39.2 °F 48% 29.99 in 10.0 mi North 4.6 mph - N/A   Clear
10:35 AM 60.8 °F 37.4 °F 42% 29.99 in 10.0 mi North 3.5 mph - N/A   Clear
10:55 AM 60.8 °F 35.6 °F 39% 29.99 in 10.0 mi North 6.9 mph - N/A   Clear
11:15 AM 64.4 °F 35.6 °F 34% 29.98 in 10.0 mi NNW 4.6 mph - N/A   Clear
11:35 AM 64.4 °F 33.8 °F 32% 29.96 in 10.0 mi North 5.8 mph - N/A   Clear
11:55 AM 66.2 °F 33.8 °F 30% 29.95 in 10.0 mi NE 5.8 mph - N/A   Clear
12:15 PM 68.0 °F 35.6 °F 30% 29.94 in 10.0 mi NE 3.5 mph - N/A   Clear
12:35 PM 68.0 °F 35.6 °F 30% 29.92 in 10.0 mi Calm Calm - N/A   Clear
12:55 PM 68.0 °F 35.6 °F 30% 29.91 in 10.0 mi North 3.5 mph - N/A   Clear
1:15 PM 69.8 °F 35.6 °F 28% 29.89 in 10.0 mi Calm Calm - N/A   Clear
1:35 PM 69.8 °F 35.6 °F 28% 29.88 in 10.0 mi Calm Calm - N/A   Clear
1:55 PM 71.6 °F 35.6 °F 27% 29.88 in 10.0 mi North 3.5 mph - N/A   Clear
2:15 PM 71.6 °F 33.8 °F 25% 29.87 in 10.0 mi NNW 3.5 mph - N/A   Clear
2:35 PM 71.6 °F 35.6 °F 27% 29.87 in 10.0 mi Calm Calm - N/A   Clear
2:55 PM 71.6 °F 35.6 °F 27% 29.86 in 10.0 mi NE 3.5 mph - N/A   Clear
3:15 PM 69.8 °F 35.6 °F 28% 29.87 in 10.0 mi Calm Calm - N/A   Clear
3:35 PM 69.8 °F 35.6 °F 28% 29.86 in 10.0 mi North 4.6 mph - N/A   Clear
3:55 PM 69.8 °F 35.6 °F 28% 29.85 in 10.0 mi North 3.5 mph - N/A   Clear
4:15 PM 69.8 °F 33.8 °F 27% 29.85 in 10.0 mi NNW 3.5 mph - N/A   Clear
4:35 PM 68.0 °F 35.6 °F 30% 29.84 in 10.0 mi Calm Calm - N/A   Clear
4:55 PM 66.2 °F 35.6 °F 32% 29.84 in 10.0 mi Calm Calm - N/A   Clear
5:15 PM 64.4 °F 37.4 °F 37% 29.84 in 10.0 mi Calm Calm - N/A   Clear
5:35 PM 60.8 °F 39.2 °F 45% 29.83 in 10.0 mi Calm Calm - N/A   Clear
5:55 PM 57.2 °F 41.0 °F 55% 29.83 in 10.0 mi Calm Calm - N/A   Clear
6:15 PM 55.4 °F 41.0 °F 58% 29.83 in 10.0 mi Calm Calm - N/A   Clear
6:35 PM 53.6 °F 42.8 °F 67% 29.82 in 10.0 mi Calm Calm - N/A   Clear
6:55 PM 53.6 °F 41.0 °F 62% 29.82 in 10.0 mi Calm Calm - N/A   Clear
7:15 PM 51.8 °F 42.8 °F 71% 29.82 in 10.0 mi Calm Calm - N/A   Clear
7:35 PM 51.8 °F 42.8 °F 71% 29.82 in 10.0 mi Calm Calm - N/A   Clear
7:55 PM 51.8 °F 42.8 °F 71% 29.82 in 10.0 mi Calm Calm - N/A   Clear
8:15 PM 51.8 °F 42.8 °F 71% 29.82 in 10.0 mi Calm Calm - N/A   Clear
8:35 PM 51.8 °F 42.8 °F 71% 29.82 in 10.0 mi Calm Calm - N/A   Clear
8:55 PM 50.0 °F 42.8 °F 76% 29.82 in 10.0 mi Calm Calm - N/A   Clear
9:15 PM 50.0 °F 44.6 °F 82% 29.82 in 10.0 mi Calm Calm - N/A   Clear
9:35 PM 51.8 °F 44.6 °F 76% 29.82 in 10.0 mi Calm Calm - N/A   Clear
9:55 PM 50.0 °F 42.8 °F 76% 29.81 in 10.0 mi Calm Calm - N/A   Clear
10:15 PM 50.0 °F 42.8 °F 76% 29.80 in 10.0 mi Calm Calm - N/A   Clear
10:35 PM 50.0 °F 42.8 °F 76% 29.80 in 10.0 mi Calm Calm - N/A   Clear
10:55 PM 50.0 °F 44.6 °F 82% 29.79 in 10.0 mi Calm Calm - N/A   Clear
11:15 PM 51.8 °F 42.8 °F 71% 29.78 in 10.0 mi Calm Calm - N/A   Clear
11:35 PM 51.8 °F 44.6 °F 76% 29.78 in 10.0 mi Calm Calm - N/A   Mostly Cloudy
11:55 PM 53.6 °F 44.6 °F 72% 29.78 in 10.0 mi Calm Calm - N/A   Overcast